Weather History for Branson West Muni - Emerson F, MO

Change the Weather History Date:

Saturday, January 18, 2014

  Actual Average (KHRO) Record (KHRO)
Temperature  
Mean Temperature 38 °F 36 °F  
Max Temperature 53 °F 47 °F 71 °F (1953)
Min Temperature 24 °F 26 °F -18 °F (1930)
Degree Days  
Heating Degree Days 26 29  
Month to date heating degree days 522  
Since 1 July heating degree days 2121  
Cooling Degree Days 0 0  
Month to date cooling degree days 0  
Year to date cooling degree days 0  
Moisture  
Dew Point 18 °F    
Average Humidity 43    
Maximum Humidity 64    
Minimum Humidity 30    
Precipitation  
Precipitation 0.00 in 0.08 in 1.50 in (1956)
Month to date precipitation 1.52  
Year to date precipitation 1.52  
Snow  
Snow 0.00 in 0.10 in 8.00 in (1892)
Month to date snowfall 1.8  
Since 1 July snowfall 3.6  
Snow Depth -    
Sea Level Pressure  
Sea Level Pressure 29.93 in    
Wind  
Wind Speed 9 mph (West)    
Max Wind Speed 22 mph    
Max Gust Speed 37 mph    
Visibility 10 miles    
Events      
T = Trace of Precipitation, MM = Missing Value Source: NWS Daily Summary

Daily Weather History Graph

Daily Weather History Graph

Search for Another Location

Airport:

Trip Planner

Search our weather history database for the weather conditions in past years. The results will help you decide how hot, cold, wet, or windy it might be!

Date:

Astronomy

Jan. 18, 2014 Rise Set
Actual Time 7:24 AM CST 5:24 PM CST
Civil Twilight 6:56 AM CST 5:52 PM CST
Nautical Twilight 6:24 AM CST 6:24 PM CST
Astronomical Twilight 5:53 AM CST 6:55 PM CST
Moon 8:01 PM CST (1/18) 8:28 AM CST (1/18)
Length of Visible Light 10h 56m
Length of Day
10h 00m
Waning Gibbous, 94% of the Moon is Illuminated
Jan 18
Waning Gibbous
Jan 23
Last Quarter
Jan 30
New
Feb 6
First Quarter
Feb 14
Full

Hourly Weather History & Observations

Time (CST) Temp. Windchill Dew Point Humidity Pressure Visibility Wind Dir Wind Speed Gust Speed Precip Events Conditions
12:15 AM 24.8 °F - 6.8 °F 46% 30.08 in 10.0 mi Calm Calm - N/A   Clear
12:35 AM 24.8 °F - 8.6 °F 50% 30.07 in 10.0 mi Calm Calm - N/A   Clear
12:55 AM 24.8 °F 20.5 °F 8.6 °F 50% 30.07 in 10.0 mi SW 3.5 mph - N/A   Clear
1:15 AM 24.8 °F 20.5 °F 10.4 °F 54% 30.06 in 10.0 mi SW 3.5 mph - N/A   Partly Cloudy
1:35 AM 26.6 °F - 8.6 °F 47% 30.06 in 10.0 mi Calm Calm - N/A   Mostly Cloudy
1:55 AM 26.6 °F 21.2 °F 8.6 °F 47% 30.05 in 10.0 mi SSW 4.6 mph - N/A   Overcast
2:15 AM 26.6 °F 22.6 °F 10.4 °F 51% 30.05 in 10.0 mi SSW 3.5 mph - N/A   Overcast
2:35 AM 28.4 °F 21.2 °F 10.4 °F 47% 30.04 in 10.0 mi SW 6.9 mph - N/A   Overcast
2:55 AM 28.4 °F 22.2 °F 10.4 °F 47% 30.03 in 10.0 mi SW 5.8 mph - N/A   Overcast
3:15 AM 28.4 °F 21.2 °F 10.4 °F 47% 30.01 in 10.0 mi SW 6.9 mph - N/A   Mostly Cloudy
3:35 AM 28.4 °F 21.2 °F 10.4 °F 47% 30.00 in 10.0 mi SW 6.9 mph - N/A   Mostly Cloudy
3:55 AM 30.2 °F 22.6 °F 10.4 °F 44% 29.99 in 10.0 mi SW 8.1 mph - N/A   Mostly Cloudy
4:15 AM 32.0 °F 26.4 °F 10.4 °F 41% 29.98 in 10.0 mi SSW 5.8 mph - N/A   Overcast
4:35 AM 32.0 °F 23.0 °F 12.2 °F 44% 29.96 in 10.0 mi SW 11.5 mph - N/A   Overcast
4:55 AM 32.0 °F 23.0 °F 10.4 °F 41% 29.95 in 10.0 mi SSW 11.5 mph 18.4 mph N/A   Overcast
5:15 AM 32.0 °F 24.2 °F 12.2 °F 44% 29.94 in 10.0 mi SW 9.2 mph 16.1 mph N/A   Scattered Clouds
5:35 AM 32.0 °F 24.8 °F 12.2 °F 44% 29.93 in 10.0 mi SSW 8.1 mph - N/A   Scattered Clouds
5:55 AM 32.0 °F 24.2 °F 12.2 °F 44% 29.92 in 10.0 mi SW 9.2 mph - N/A   Partly Cloudy
6:15 AM 30.2 °F 21.9 °F 14.0 °F 51% 29.92 in 10.0 mi SW 9.2 mph - N/A   Partly Cloudy
6:35 AM 32.0 °F 23.0 °F 14.0 °F 48% 29.91 in 10.0 mi SW 11.5 mph - N/A   Partly Cloudy
6:55 AM 32.0 °F 24.8 °F 14.0 °F 48% 29.90 in 10.0 mi WSW 8.1 mph - N/A   Clear
7:15 AM 32.0 °F 24.2 °F 14.0 °F 48% 29.88 in 10.0 mi WSW 9.2 mph - N/A   Clear
7:35 AM 32.0 °F 23.6 °F 15.8 °F 51% 29.87 in 10.0 mi WSW 10.4 mph - N/A   Partly Cloudy
7:55 AM 35.6 °F 27.5 °F 15.8 °F 44% 29.86 in 10.0 mi WSW 11.5 mph 17.3 mph N/A   Mostly Cloudy
8:15 AM 35.6 °F 26.6 °F 15.8 °F 44% 29.85 in 10.0 mi SW 13.8 mph 21.9 mph N/A   Scattered Clouds
8:35 AM 39.2 °F 29.8 °F 17.6 °F 42% 29.85 in 10.0 mi WSW 18.4 mph 31.1 mph N/A   Mostly Cloudy
8:55 AM 41.0 °F 32.2 °F 17.6 °F 39% 29.85 in 10.0 mi SW 18.4 mph 26.5 mph N/A   Overcast
9:15 AM 44.6 °F 37.4 °F 17.6 °F 34% 29.84 in 10.0 mi WSW 16.1 mph 24.2 mph N/A   Scattered Clouds
9:35 AM 44.6 °F 37.4 °F 17.6 °F 34% 29.84 in 10.0 mi WSW 16.1 mph 25.3 mph N/A   Clear
9:55 AM 46.4 °F 40.4 °F 17.6 °F 32% 29.84 in 10.0 mi WSW 13.8 mph 24.2 mph N/A   Clear
10:15 AM 46.4 °F 39.8 °F 19.4 °F 34% 29.85 in 10.0 mi West 16.1 mph 23.0 mph N/A   Clear
10:35 AM - - - N/A% 29.84 in 10.0 mi West 15.0 mph 24.2 mph N/A   Unknown
10:55 AM 48.2 °F - 19.4 °F 32% 29.83 in 10.0 mi West 20.7 mph 26.5 mph N/A   Clear
11:15 AM 50.0 °F - 19.4 °F 30% 29.82 in 10.0 mi West 13.8 mph 28.8 mph N/A   Clear
11:35 AM 50.0 °F - 19.4 °F 30% 29.83 in 10.0 mi WNW 17.3 mph 27.6 mph N/A   Clear
11:55 AM 50.0 °F - 21.2 °F 32% 29.82 in 10.0 mi West 17.3 mph 27.6 mph N/A   Clear
12:15 PM 50.0 °F - 23.0 °F 35% 29.81 in 10.0 mi West 15.0 mph 32.2 mph N/A   Clear
12:35 PM 50.0 °F - 23.0 °F 35% 29.80 in 10.0 mi West 16.1 mph 23.0 mph N/A   Clear
12:55 PM 50.0 °F - 23.0 °F 35% 29.79 in 10.0 mi West 11.5 mph 26.5 mph N/A   Clear
1:15 PM 53.6 °F - 23.0 °F 30% 29.79 in 10.0 mi West 16.1 mph 21.9 mph N/A   Scattered Clouds
1:35 PM 50.0 °F - 23.0 °F 35% 29.80 in 10.0 mi WNW 13.8 mph 29.9 mph N/A   Mostly Cloudy
1:55 PM - - - N/A% 29.80 in 10.0 mi WNW 10.4 mph 25.3 mph N/A   Scattered Clouds
2:15 PM 51.8 °F - 23.0 °F 33% 29.81 in 10.0 mi WNW 17.3 mph 32.2 mph N/A   Scattered Clouds
2:35 PM 53.6 °F - 23.0 °F 30% 29.81 in 10.0 mi WNW 20.7 mph 35.7 mph N/A   Unknown
2:55 PM 51.8 °F - 23.0 °F 33% 29.83 in 10.0 mi NW 19.6 mph 36.8 mph N/A   Overcast
3:15 PM 51.8 °F - 23.0 °F 33% 29.84 in 10.0 mi NW 15.0 mph 32.2 mph N/A   Overcast
3:35 PM 50.0 °F - 21.2 °F 32% 29.85 in 10.0 mi WNW 21.9 mph 35.7 mph N/A   Overcast
3:55 PM 50.0 °F - 19.4 °F 30% 29.87 in 10.0 mi NW 15.0 mph 28.8 mph N/A   Overcast
4:15 PM 50.0 °F - 19.4 °F 30% 29.87 in 10.0 mi WNW 19.6 mph 34.5 mph N/A   Overcast
4:35 PM 50.0 °F - 21.2 °F 32% 29.89 in 10.0 mi NW 8.1 mph 33.4 mph N/A   Overcast
4:55 PM 48.2 °F - 24.8 °F 40% 29.90 in 10.0 mi NW 13.8 mph 27.6 mph N/A   Mostly Cloudy
5:15 PM 46.4 °F 39.8 °F 24.8 °F 43% 29.91 in 10.0 mi NW 16.1 mph 23.0 mph N/A   Overcast
5:35 PM 46.4 °F 39.2 °F 23.0 °F 40% 29.93 in 10.0 mi WNW 18.4 mph 32.2 mph N/A   Mostly Cloudy
5:55 PM 46.4 °F 39.2 °F 23.0 °F 40% 29.94 in 10.0 mi WNW 18.4 mph 25.3 mph N/A   Mostly Cloudy
6:15 PM 44.6 °F 37.8 °F 23.0 °F 43% 29.95 in 10.0 mi WNW 15.0 mph 28.8 mph N/A   Partly Cloudy
6:35 PM 44.6 °F 38.1 °F 23.0 °F 43% 29.95 in 10.0 mi WNW 13.8 mph 26.5 mph N/A   Clear
6:55 PM 44.6 °F 38.8 °F 23.0 °F 43% 29.96 in 10.0 mi WNW 11.5 mph 24.2 mph N/A   Scattered Clouds
7:15 PM 44.6 °F 38.1 °F 23.0 °F 43% 29.96 in 10.0 mi WNW 13.8 mph 27.6 mph N/A   Mostly Cloudy
7:35 PM 42.8 °F 36.2 °F 23.0 °F 46% 29.96 in 10.0 mi WNW 12.7 mph 28.8 mph N/A   Mostly Cloudy
7:55 PM 42.8 °F 35.8 °F 23.0 °F 46% 29.97 in 10.0 mi WNW 13.8 mph 24.2 mph N/A   Mostly Cloudy
8:15 PM 42.8 °F 35.1 °F 23.0 °F 46% 29.98 in 10.0 mi WNW 16.1 mph 23.0 mph N/A   Scattered Clouds
8:35 PM 41.0 °F 33.5 °F 23.0 °F 49% 29.98 in 10.0 mi WNW 13.8 mph 26.5 mph N/A   Partly Cloudy
8:55 PM 41.0 °F 33.9 °F 23.0 °F 49% 29.99 in 10.0 mi WNW 12.7 mph 26.5 mph N/A   Partly Cloudy
9:15 PM 41.0 °F 31.9 °F 23.0 °F 49% 29.99 in 10.0 mi WNW 19.6 mph 25.3 mph N/A   Scattered Clouds
9:35 PM 41.0 °F 33.5 °F 23.0 °F 49% 30.00 in 10.0 mi WNW 13.8 mph 19.6 mph N/A   Mostly Cloudy
9:55 PM 39.2 °F 32.0 °F 23.0 °F 52% 30.02 in 10.0 mi NNW 11.5 mph 25.3 mph N/A   Partly Cloudy
10:15 PM 37.4 °F 28.5 °F 19.4 °F 48% 30.03 in 10.0 mi NW 15.0 mph 34.5 mph N/A   Clear
10:35 PM 35.6 °F 28.0 °F 19.4 °F 52% 30.04 in 10.0 mi NW 10.4 mph 26.5 mph N/A   Clear
10:55 PM 32.0 °F 20.5 °F 19.4 °F 60% 30.06 in 10.0 mi NW 18.4 mph 27.6 mph N/A   Clear
11:15 PM 32.0 °F 23.0 °F 19.4 °F 60% 30.07 in 10.0 mi WNW 11.5 mph 18.4 mph N/A   Clear
11:35 PM 30.2 °F 19.8 °F 17.6 °F 60% 30.08 in 10.0 mi NW 13.8 mph 23.0 mph N/A   Clear
11:55 PM 28.4 °F 17.5 °F 17.6 °F 64% 30.09 in 10.0 mi NNW 13.8 mph 26.5 mph N/A   Clear